Location: Chippewa Lake
(41.0698°N, 81.9010°W)
Time: 00:02:15
(UTC+00:00)

Meteor 1-14 Rocket - Pass Details

Date: 09 May 2021
Orbit: 833 x 919 km, 81.3° (Epoch: 24 June)

Event Time Altitude Azimuth Distance (km) Brightness Sun altitude
Rises 02:56:17 0° 349° (N) 3,538 8.5 -22.2°
Reaches altitude 10° 02:58:47 10° 349° (NNW) 2,582 7.6 -22.5°
Maximum altitude 03:04:40 82° 263° (W) 899 4.3 -23.2°
Enters shadow 03:06:28 46° 182° (S) 1,161 4.5 -23.4°
